Regional Weather Roundup
Issued by NWS State College, PA

Home | Current Version | Previous Version | Text Only | Print | Product List | Glossary On
Versions: 1 2 3 4 5 6 7 8 9 10 11 12 13 14 15 16 17 18 19 20 21 22 23 24 25 26 27 28 29 30 31 32 33 34 35 36 37 38 39 40 41 42 43 44 45 46 47 48 49 50
000
ASUS41 KCTP 152010
RWRCTP

REGIONAL WEATHER ROUNDUP
NATIONAL WEATHER SERVICE STATE COLLEGE PA
400 PM EDT TUE APR 15 2014

Note: "fair" indicates few or no clouds below 12,000 feet with no
significant weather and/or obstructions to visibility.

* = STATION THAT DOES NOT REPORT PRECIPITATION /E.G. RAIN...SNOW...ETC/
    THUNDER OR FOG.

PAZ002>004-007>009-013>016-020>023-029>032-152100-
WESTERN PENNSYLVANIA

CITY           SKY/WX    TMP DP  RH WIND       PRES   REMARKS
ERIE           CLOUDY    30  22  72 W14G22    29.97R
MEADVILLE      NOT AVBL
FRANKLIN*      CLOUDY    28  21  74 NW13      29.92R
NEW CASTLE     FLURRIES  29  24  81 NW9G16    29.98R
BEAVER COUNTY  CLOUDY    30  27  86 NW10G20   29.95R
BUTLER*        CLOUDY    30  25  80 NW8G17    29.94R
PITTSBURGH INT CLOUDY    32  27  81 NW22      29.94R
PITTSBURGH     CLOUDY    33  27  78 NW13G22   29.89R
INDIANA*       CLOUDY    34  28  80 W13G20    29.88R
LATROBE        CLOUDY    36  32  87 NW14G25   29.90R
WASHINGTON CO* CLOUDY    34  27  75 W9G18     29.95F
$$

PAZ004>006-010>012-017>019-024>028-033>037-041-042-045-046-049>053-152100-
CENTRAL PENNSYLVANIA

CITY           SKY/WX    TMP DP  RH WIND       PRES   REMARKS
BRADFORD       CLOUDY    29  21  72 NW14G28   29.79R
DUBOIS         CLOUDY    33  25  72 W17G25    29.81R
CLEARFIELD     CLOUDY    35  27  72 W17G30    29.80R
JOHNSTOWN      CLOUDY    31  27  85 NW24G31   29.77R
ALTOONA        CLOUDY    37  31  78 NW17G25   29.77S
STATE COLLEGE  CLOUDY    39  28  65 NW12G23   29.77R
WILLIAMSPORT   LGT RAIN  41  36  82 NW14      29.77R
SELINSGROVE    LGT RAIN  43  37  79 NW12G23   29.77R
FT INDIANTOWN  RAIN      44  43  99 N18G26    29.69R
CAPITAL CITY   LGT RAIN  45  39  79 NW13G22   29.72R
HARRISBURG     RAIN      46  41  82 NW13G24   29.72R
YORK           LGT RAIN  44  41  89 NW12G23   29.72R FOG
$$

PAZ038>040-043-044-047-048-054-055-060>062-067>071-152100-
EASTERN PENNSYLVANIA

CITY           SKY/WX    TMP DP  RH WIND       PRES   REMARKS
SCRANTON       LGT RAIN  42  39  89 NW16      29.70R
MOUNT POCONO   LGT RAIN  40  37  89 NW25G33   29.59S
ALLENTOWN      LGT RAIN  51  44  77 NW16G30   29.61R
QUAKERTOWN*    CLOUDY    50  48  93 W13       29.61R
READING        RAIN      49  43  80 NW23      29.65R
LANCASTER      RAIN      45  42  89 NW17      29.68R FOG
COATESVILLE    NOT AVBL
POTTSTOWN      RAIN      50  48  93 NW14G23   29.63R FOG
BLUE BELL      CLOUDY    55  52  88 NW9G24    29.59R
DOYLESTOWN     HVY RAIN  52  52 100 NW14G24   29.60R FOG
WILLOW GROVE   NOT AVBL
NORTH PHILA    CLOUDY    71  59  65 S18G25    29.55R
PHILADELPHIA   LGT RAIN  66  57  72 W23G33    29.58R
$$



USA.gov is the U.S. government's official web portal to all federal, state and local government web resources and services.